User: anonymous   Login
Location: Lawrence Hall of Science
(37.8785°N, 122.2415°W)
Time: 02:47:56
(UTC-07:00)
Language:

Cosmos 2098 Rocket - Orbit

View from above orbital plane
View from above orbital plane
View from above satellite
View from above satellite

Ground track
Ground track

The orbit data is extracted from the following two-line orbital elements,

1 20775U 90078B   15183.13302269  .00002540  00000-0  13020-3 0  9999
2 20775 082.9328 272.7945 0613399 019.7835 021.7135 14.24745207246574
Epoch (UTC): 02 July 2015 03:11:33
Eccentricity: 0.0613399
inclination: 82.9328°
perigee height: 368 km
apogee height: 1250 km
right ascension of ascending node: 272.7945°
argument of perigee: 19.7835°
revolutions per day: 14.24745207
mean anomaly at epoch: 21.7135°
orbit number at epoch: 24657

The dashed part of the orbit path shows where the satellite is in the earth's shadow,  

DLR